Location: Kerentrech
(47.7567°N, 3.3595°W)
Time: 05:39:33
(UTC+00:00)

Cosmos 1943 Rocket - Pass Details

Date: 17 February 2020
Orbit: 814 x 842 km, 71.0° (Epoch: 30 March)

Event Time Altitude Azimuth Distance (km) Brightness Sun altitude
Exits shadow 04:31:26 15° 345° (NNW) 2,075 4.2 -28.4°
Maximum altitude 04:35:47 47° 55° (NE) 1,075 3.0 -27.6°
Drops below altitude 10° 04:41:04 10° 129° (SE) 2,400 5.0 -26.8°
Sets 04:43:35 0° 136° (SE) 3,329 5.7 -26.4°
